sat.trackr.live / text

‹ back to catalog

STARLINK-34049

NORAD 64042 · 2025-102W

PAYLOAD ACTIVE UNKNOWN

§ Identity

Operator
Country
US
Launch date
2025-05-16
Launch site
AFWTR
Launch vehicle
Mass (kg)
RCS (m²)

Purposes: comms

External: N2YO · Heavens-Above · Gunter

§ Orbital elements

Epoch: 2026-05-25T02:26:51.629280Z

Period
96.11 min
Inclination
70.0004°
Eccentricity
0.0003219
Mean motion
14.98340192 rev/d
Perigee alt
569.8 km
Apogee alt
574.3 km
Semi-major
6,950.2 km
B*
4.7115e-4
RAAN
281.9647°
Arg perigee
269.0938°
Mean anomaly
90.9852°
Rev number
5,739

§ Raw data

STARLINK-340491 64042U 25102W   26145.10198645  .00005535  00000+0  47115-3 0  99962 64042  70.0004 281.9647 0003219 269.0938  90.9852 14.98340192 57396

JSON: /api/v1/satellites/64042 · /tle

For live sub-satellite position, see the globe view (requires WebGL).

§ Visibility from observer

Set your observer location to see the next 7 days of passes ≥ 10°. The values pass through the URL so the page stays shareable.

No JS? Fill the form by hand. The geolocation button needs JavaScript.